�������l�o���
Date,Time,MP-1(��Sv/h),MP-2(��Sv/h),MP-3(��Sv/h),MP-4(��Sv/h),MP-5(��Sv/h),MP-6(��Sv/h),MP-7(��Sv/h),MP-8(��Sv/h),����,����(m/s),���J
2020/12/15,00:00,0.670,0.965,0.611,1.212,0.851,0.381,0.675,0.634,���k��,6.3,��
2020/12/15,00:10,0.670,0.966,0.610,1.213,0.853,0.383,0.674,0.636,���k��,7.4,��
2020/12/15,00:20,0.669,0.964,0.611,1.214,0.852,0.383,0.675,0.635,���k��,6.8,��
2020/12/15,00:30,0.670,0.966,0.611,1.213,0.852,0.381,0.675,0.635,���k��,6.7,��
2020/12/15,00:40,0.671,0.962,0.611,1.212,0.855,0.382,0.675,0.634,���k��,7.6,��
2020/12/15,00:50,0.671,0.965,0.609,1.214,0.851,0.381,0.676,0.635,���k��,7.1,��
2020/12/15,01:00,0.671,0.963,0.612,1.209,0.853,0.382,0.674,0.634,���k��,7.3,��
2020/12/15,01:10,0.670,0.966,0.611,1.210,0.853,0.382,0.675,0.633,���k��,7.8,��
2020/12/15,01:20,0.672,0.966,0.609,1.211,0.854,0.381,0.675,0.635,���k��,9.1,��
2020/12/15,01:30,0.670,0.965,0.609,1.214,0.853,0.382,0.675,0.635,���k��,8.1,��
2020/12/15,01:40,0.671,0.964,0.611,1.214,0.853,0.381,0.676,0.636,���k��,11.6,��
2020/12/15,01:50,0.672,0.964,0.608,1.213,0.853,0.379,0.675,0.635,���k��,9.1,��
2020/12/15,02:00,0.671,0.965,0.609,1.212,0.854,0.380,0.677,0.634,���k��,6.7,��
2020/12/15,02:10,0.672,0.966,0.611,1.215,0.852,0.381,0.674,0.636,��,7.4,��
2020/12/15,02:20,0.669,0.964,0.612,1.209,0.852,0.380,0.676,0.634,���k��,6.5,��
2020/12/15,02:30,0.671,0.965,0.612,1.213,0.852,0.381,0.676,0.635,���k��,5.3,��
2020/12/15,02:40,0.672,0.964,0.610,1.214,0.851,0.381,0.676,0.637,�k��,3.1,��
2020/12/15,02:50,0.670,0.966,0.611,1.214,0.853,0.382,0.677,0.636,���k��,3.1,��
2020/12/15,03:00,0.670,0.965,0.611,1.211,0.852,0.382,0.676,0.636,���k��,2.6,��
2020/12/15,03:10,0.670,0.966,0.611,1.213,0.852,0.383,0.674,0.635,�k��,3.6,��
2020/12/15,03:20,0.669,0.963,0.613,1.214,0.851,0.383,0.676,0.635,���k��,3.3,��
2020/12/15,03:30,0.669,0.962,0.612,1.211,0.852,0.381,0.674,0.635,���k��,4.5,��
2020/12/15,03:40,0.670,0.962,0.611,1.211,0.851,0.382,0.674,0.635,���k��,4.5,��
2020/12/15,03:50,0.670,0.964,0.611,1.213,0.852,0.381,0.676,0.634,���k��,5.3,��
2020/12/15,04:00,0.671,0.963,0.613,1.212,0.850,0.383,0.675,0.635,��,6.1,��
2020/12/15,04:10,0.670,0.965,0.612,1.213,0.850,0.382,0.676,0.637,��,6.5,��
2020/12/15,04:20,0.671,0.965,0.612,1.212,0.850,0.382,0.675,0.636,��,6.1,��
2020/12/15,04:30,0.670,0.964,0.614,1.212,0.853,0.382,0.676,0.636,��,5.3,��
2020/12/15,04:40,0.671,0.962,0.613,1.213,0.849,0.382,0.676,0.635,��,7.0,��
2020/12/15,04:50,0.671,0.963,0.613,1.213,0.852,0.381,0.676,0.635,��,7.2,��
2020/12/15,05:00,0.671,0.963,0.610,1.213,0.851,0.381,0.675,0.634,��,8.5,��
2020/12/15,05:10,0.671,0.964,0.611,1.212,0.852,0.381,0.676,0.635,���k��,7.5,��
2020/12/15,05:20,0.671,0.963,0.611,1.213,0.851,0.382,0.675,0.635,��,6.0,��
2020/12/15,05:30,0.671,0.964,0.613,1.215,0.853,0.380,0.677,0.635,��,6.4,��
2020/12/15,05:40,0.669,0.964,0.612,1.213,0.852,0.383,0.675,0.637,��,6.9,��
2020/12/15,05:50,0.670,0.965,0.613,1.213,0.850,0.381,0.676,0.638,��,5.0,��
2020/12/15,06:00,0.672,0.963,0.612,1.213,0.851,0.381,0.677,0.635,���k��,5.2,��
2020/12/15,06:10,0.670,0.965,0.612,1.212,0.851,0.382,0.676,0.636,���k��,5.9,��
2020/12/15,06:20,0.669,0.963,0.612,1.213,0.850,0.382,0.676,0.635,���k��,6.9,��
2020/12/15,06:30,0.670,0.960,0.611,1.213,0.850,0.383,0.676,0.636,��,7.1,��
2020/12/15,06:40,0.672,0.965,0.612,1.214,0.851,0.382,0.677,0.634,��,8.6,��
2020/12/15,06:50,0.669,0.961,0.612,1.213,0.852,0.382,0.675,0.636,��,6.9,��
2020/12/15,07:00,0.670,0.964,0.613,1.216,0.851,0.382,0.674,0.636,��,6.8,��
2020/12/15,07:10,0.671,0.963,0.612,1.214,0.853,0.384,0.676,0.635,���k��,4.6,��
2020/12/15,07:20,0.669,0.963,0.614,1.211,0.851,0.383,0.677,0.635,���k��,3.9,��
2020/12/15,07:30,0.670,0.964,0.611,1.213,0.854,0.381,0.678,0.637,�k��,2.5,��
2020/12/15,07:40,0.671,0.962,0.613,1.213,0.853,0.383,0.677,0.635,�k�k��,2.3,��
2020/12/15,07:50,0.670,0.962,0.612,1.216,0.851,0.382,0.677,0.637,�k�k��,2.5,��
2020/12/15,08:00,0.668,0.962,0.610,1.212,0.852,0.382,0.674,0.635,���k��,2.0,��
2020/12/15,08:10,0.670,0.961,0.611,1.213,0.851,0.381,0.676,0.637,���k��,6.0,��
2020/12/15,08:20,0.671,0.962,0.613,1.212,0.852,0.382,0.677,0.636,���k��,4.9,��
2020/12/15,08:30,0.672,0.959,0.613,1.214,0.852,0.383,0.675,0.637,���k��,5.4,��
2020/12/15,08:40,0.673,0.961,0.611,1.215,0.851,0.381,0.675,0.637,���k��,5.8,��
2020/12/15,08:50,0.671,0.962,0.612,1.215,0.851,0.381,0.677,0.636,��,4.3,��
2020/12/15,09:00,0.671,0.963,0.613,1.214,0.853,0.381,0.677,0.635,��,2.8,��
2020/12/15,09:10,0.672,0.961,0.612,1.215,0.852,0.383,0.677,0.636,�k��,2.2,��
2020/12/15,09:20,0.671,0.961,0.612,1.213,0.853,0.382,0.677,0.636,���k��,4.3,��
2020/12/15,09:30,0.673,0.962,0.614,1.214,0.852,0.382,0.678,0.638,��,3.3,��
2020/12/15,09:40,0.672,0.964,0.613,1.213,0.853,0.383,0.676,0.637,���k��,6.0,��
2020/12/15,09:50,0.673,0.961,0.613,1.212,0.853,0.383,0.677,0.636,���k��,5.7,��
2020/12/15,10:00,0.674,0.960,0.611,1.214,0.852,0.385,0.676,0.637,��,5.4,��
2020/12/15,10:10,0.673,0.963,0.612,1.213,0.853,0.382,0.676,0.638,���k��,8.9,��
2020/12/15,10:20,0.672,0.962,0.615,1.213,0.853,0.383,0.676,0.635,���k��,6.6,��
2020/12/15,10:30,0.675,0.962,0.613,1.214,0.855,0.383,0.676,0.637,���k��,4.1,��
2020/12/15,10:40,0.674,-,0.616,1.215,0.854,0.384,0.678,0.637,��,6.6,��
2020/12/15,10:50,0.676,-,0.614,1.213,0.854,0.385,0.676,0.637,���k��,7.3,��
2020/12/15,11:00,0.674,-,0.613,1.216,0.854,0.383,0.675,0.638,��,9.4,��
2020/12/15,11:10,0.674,-,0.615,1.215,0.856,0.383,0.679,0.637,��,6.3,��
2020/12/15,11:20,0.675,-,0.614,1.212,0.854,0.383,0.675,0.639,��,6.9,��
2020/12/15,11:30,0.675,-,0.613,1.213,0.854,0.385,0.677,0.637,���쐼,6.6,��
2020/12/15,11:40,0.673,-,0.614,1.214,0.856,0.384,0.677,0.638,���쐼,6.9,��
2020/12/15,11:50,0.673,-,0.614,1.214,0.857,0.384,0.680,0.638,��,7.4,��
2020/12/15,12:00,0.673,-,0.615,1.215,0.855,0.385,0.680,0.636,��,7.9,��
2020/12/15,12:10,0.675,-,0.613,1.215,0.858,0.383,0.678,0.639,���k��,6.3,��
2020/12/15,12:20,0.675,-,0.613,1.216,0.855,0.383,0.678,0.637,���k��,4.5,��
2020/12/15,12:30,0.673,-,0.614,1.216,0.858,0.383,0.678,0.636,�k�k��,7.3,��
2020/12/15,12:40,0.672,-,0.613,1.213,0.856,0.383,0.678,0.639,�k�k��,7.2,��
2020/12/15,12:50,0.674,0.962,0.613,1.217,0.854,0.383,0.678,0.637,�k,7.0,��
2020/12/15,13:00,0.674,0.959,0.613,1.216,0.857,0.384,0.676,0.638,�k,7.6,��
2020/12/15,13:10,0.674,0.964,0.615,1.214,0.853,0.383,0.676,0.636,�k�k��,8.0,��
2020/12/15,13:20,0.674,0.962,0.613,1.218,0.855,0.385,0.675,0.637,�k�k��,8.9,��
2020/12/15,13:30,0.675,0.963,0.615,1.217,0.855,0.384,0.677,0.637,�k�k��,10.2,��
2020/12/15,13:40,0.674,0.964,0.614,1.214,0.857,0.383,0.675,0.638,�k��,9.4,��
2020/12/15,13:50,0.673,0.965,0.613,1.215,0.856,0.381,0.675,0.637,�k��,8.0,��
2020/12/15,14:00,0.676,0.964,0.615,1.216,0.856,0.383,0.675,0.637,�k��,7.4,�L
2020/12/15,14:10,0.675,0.964,0.617,1.217,0.858,0.384,0.676,0.640,�k��,7.3,�L
2020/12/15,14:20,0.677,0.967,0.616,1.217,0.858,0.383,0.678,0.637,�k��,7.9,�L
2020/12/15,14:30,0.675,0.966,0.618,1.220,0.857,0.386,0.677,0.637,�k��,8.2,�L
2020/12/15,14:40,0.678,0.965,0.616,1.219,0.857,0.386,0.677,0.637,�k��,7.1,�L
2020/12/15,14:50,0.676,0.968,0.615,1.218,0.859,0.383,0.678,0.638,�k��,7.4,��
2020/12/15,15:00,0.677,0.969,0.615,1.216,0.858,0.384,0.677,0.636,�k��,7.5,��
2020/12/15,15:10,0.677,0.967,0.616,1.216,0.858,0.386,0.677,0.639,�k�k��,5.7,�L
2020/12/15,15:20,0.674,0.968,0.616,1.215,0.859,0.386,0.679,0.637,�k��,7.5,��
2020/12/15,15:30,0.674,0.969,0.615,1.215,0.858,0.385,0.676,0.637,�k��,5.9,��
2020/12/15,15:40,0.674,0.967,0.615,1.216,0.855,0.384,0.676,0.639,�k��,6.7,��
2020/12/15,15:50,0.674,0.965,0.615,1.216,0.856,0.383,0.678,0.636,�k�k��,6.6,��
2020/12/15,16:00,0.675,0.967,0.614,1.215,0.855,0.384,0.676,0.638,�k��,6.6,��
2020/12/15,16:10,0.674,0.967,0.614,1.214,0.855,0.384,0.677,0.638,�k��,4.6,��
2020/12/15,16:20,0.671,0.967,0.613,1.214,0.856,0.386,0.677,0.636,�k�k��,5.0,��
2020/12/15,16:30,0.671,0.967,0.614,1.215,0.855,0.383,0.678,0.638,�k��,6.2,��
2020/12/15,16:40,0.672,0.967,0.615,1.216,0.855,0.385,0.676,0.638,�k�k��,4.9,��
2020/12/15,16:50,0.674,0.966,0.614,1.213,0.853,0.382,0.678,0.636,�k�k��,4.9,��
2020/12/15,17:00,0.671,0.965,0.614,1.214,0.854,0.383,0.676,0.637,�k�k��,4.8,��
2020/12/15,17:10,0.672,0.967,0.613,1.212,0.854,0.384,0.676,0.638,�k�k��,4.8,��
2020/12/15,17:20,0.671,0.967,0.613,1.213,0.853,0.384,0.676,0.637,�k��,5.5,��
2020/12/15,17:30,0.671,0.966,0.615,1.214,0.854,0.383,0.675,0.638,���k��,3.8,��
2020/12/15,17:40,0.672,0.968,0.614,1.213,0.853,0.384,0.674,0.637,�k��,3.8,�L
2020/12/15,17:50,0.672,0.967,0.613,1.215,0.852,0.384,0.677,0.637,���k��,3.7,��
2020/12/15,18:00,0.672,0.966,0.612,1.214,0.852,0.384,0.676,0.635,���k��,3.6,��
2020/12/15,18:10,0.671,0.967,0.612,1.212,0.853,0.385,0.677,0.635,�k��,4.5,��
2020/12/15,18:20,0.672,0.968,0.613,1.213,0.851,0.383,0.675,0.636,�k��,5.2,��
2020/12/15,18:30,0.671,0.966,0.613,1.216,0.853,0.384,0.677,0.637,�k��,5.6,��
2020/12/15,18:40,0.672,0.967,0.612,1.212,0.854,0.383,0.675,0.635,�k��,4.6,��
2020/12/15,18:50,0.671,0.965,0.613,1.213,0.854,0.382,0.676,0.639,�k��,5.0,��
2020/12/15,19:00,0.671,0.966,0.614,1.213,0.853,0.383,0.676,0.636,�k��,5.2,��
2020/12/15,19:10,0.671,0.968,0.612,1.215,0.853,0.383,0.675,0.637,�k��,5.7,��
2020/12/15,19:20,0.672,0.966,0.611,1.212,0.853,0.381,0.676,0.634,�k��,5.4,��
2020/12/15,19:30,0.670,0.967,0.611,1.214,0.854,0.384,0.675,0.635,�k��,4.0,��
2020/12/15,19:40,0.671,0.968,0.614,1.212,0.854,0.382,0.675,0.636,�k��,5.1,��
2020/12/15,19:50,0.670,0.966,0.612,1.214,0.852,0.383,0.676,0.635,�k��,4.1,��
2020/12/15,20:00,0.669,0.968,0.612,1.212,0.854,0.382,0.677,0.636,�k��,3.7,��
2020/12/15,20:10,0.671,0.966,0.611,1.215,0.852,0.383,0.675,0.635,�k��,3.2,��
2020/12/15,20:20,0.672,0.964,0.611,1.212,0.854,0.383,0.675,0.636,���k��,3.0,��
2020/12/15,20:30,0.670,0.963,0.613,1.213,0.854,0.383,0.675,0.637,�k��,3.5,��
2020/12/15,20:40,0.671,0.969,0.611,1.212,0.851,0.381,0.676,0.637,�k�k��,3.8,��
2020/12/15,20:50,0.670,0.968,0.611,1.214,0.853,0.383,0.675,0.636,�k��,4.2,��
2020/12/15,21:00,0.670,0.965,0.612,1.213,0.854,0.381,0.674,0.636,�k�k��,3.7,��
2020/12/15,21:10,0.670,0.966,0.610,1.211,0.852,0.381,0.673,0.634,�k�k��,4.0,��
2020/12/15,21:20,0.670,0.966,0.611,1.213,0.852,0.382,0.676,0.636,�k�k��,4.2,��
2020/12/15,21:30,0.670,0.964,0.612,1.212,0.853,0.383,0.676,0.636,�k�k��,4.3,��
2020/12/15,21:40,0.670,0.966,0.612,1.211,0.850,0.383,0.676,0.635,�k�k��,2.5,��
2020/12/15,21:50,0.671,0.965,0.611,1.212,0.853,0.383,0.675,0.636,�k��,2.3,��
2020/12/15,22:00,0.670,0.965,0.612,1.211,0.851,0.382,0.676,0.635,���k��,1.9,��
2020/12/15,22:10,0.669,0.966,0.611,1.212,0.852,0.382,0.673,0.636,�k��,3.0,��
2020/12/15,22:20,0.670,0.964,0.610,1.214,0.852,0.382,0.676,0.636,�k��,3.6,��
2020/12/15,22:30,0.669,0.964,0.611,1.214,0.851,0.382,0.675,0.635,���k��,3.6,��
2020/12/15,22:40,0.670,0.963,0.612,1.213,0.852,0.382,0.674,0.636,��,2.8,��
2020/12/15,22:50,0.669,0.965,0.611,1.212,0.852,0.382,0.674,0.634,��,3.8,��
2020/12/15,23:00,0.669,0.964,0.612,1.211,0.853,0.382,0.675,0.635,���쐼,3.6,��
2020/12/15,23:10,0.669,0.967,0.612,1.212,0.853,0.383,0.674,0.636,��,2.8,��
2020/12/15,23:20,0.669,0.965,0.614,1.213,0.852,0.383,0.675,0.636,��,3.0,��
2020/12/15,23:30,0.669,0.964,0.612,1.212,0.852,0.383,0.675,0.635,���쐼,2.9,��
2020/12/15,23:40,0.669,0.965,0.612,1.213,0.850,0.383,0.675,0.635,���쐼,2.9,��
2020/12/15,23:50,0.670,0.965,0.611,1.210,0.852,0.382,0.674,0.635,���쐼,3.2,��
